Torna al catalogo

STARLINK-35166

AttivoComunicazioniVLEO
NORAD 65499·PAYLOAD·🇺🇸 United States

Lanciato Sep 5, 2025 da Cape Canaveral Space Force Station

Loading…

Prossimi Passaggi (prossime 24 ore)

TLE

AggiornatoSource: CelesTrak SupGP

Epoca: Sep 15, 2026, 03:45 UTC

1 65499C 25198H   26258.15673611 -.00004398  00000+0 -12995-3 0  2583
2 65499  53.1557 108.4603 0001176  88.4700 260.4853 15.34389103    11

Traccia STARLINK-35166 in tempo reale con AllMySat

Download on the App Store